This demonstration page uses our WeatherBlox Daily Observations layout. Learn more.

Left ArrowRight Arrow

Hourly Observations for September 7, 2015

Temp ( °F °C ) Dew Point ( °F °C ) Humidity (%) Winds ( mph kmh ) Pressure ( in mb ) Visibility ( mi km ) Precip ( " mm )
12:53 am 00:53 Clear with Mist and Fog 69 20.6 67 19.4 93 93 Calm 30.07 1018 6 9.65604 0 0
1:53 am 01:53 Clear with Mist and Fog 68 20 67 19.4 96 96 Calm 30.06 1018 5 8.0467 0 0
2:53 am 02:53 Clear with Mist and Fog 67 19.4 66 18.9 97 97 Calm 30.06 1018 6 9.65604 0 0
3:53 am 03:53 Clear with Mist and Fog 66 18.9 65 18.3 96 96 Calm 30.07 1018 4 6.43736 0 0
4:53 am 04:53 Clear with Mist and Fog 66 18.9 65 18.3 96 96 Calm 30.07 1018 3 4.82802 0 0
5:53 am 05:53 Clear with Mist and Fog 66 18.9 64 17.8 93 93 Calm 30.07 1018 4 6.43736 0 0
6:53 am 06:53 Clear with Mist and Fog 65 18.3 64 17.8 97 97 Calm 30.07 1018 4 6.43736 0 0
7:25 am 07:25 Sunny with Mist and Fog 65 18.3 64 17.8 97 97 Calm 30.06 1018 2 3.21868 0 0
7:48 am 07:48 Sunny with Mist and Fog 66 19 64 18 94 94 Calm 30.09 1019 4 6.43736 0 0
7:53 am 07:53 Sunny with Mist and Fog 67 19.4 66 18.9 97 97 Calm 30.1 1019 4 6.43736 0 0
8:53 am 08:53 Hazy 74 23.3 69 20.6 85 85 Calm 30.12 1020 6 9.65604 0 0
9:53 am 09:53 Sunny 77 25 70 21.1 79 79 VRB 3 6 30.12 1020 8 12.87472 0 0
10:53 am 10:53 Sunny 81 27.2 69 20.6 67 67 Calm 30.11 1020 10 16.0934 0 0
11:53 am 11:53 Sunny 86 30 69 20.6 57 57 Calm 30.11 1020 10 16.0934 0 0
12:53 pm 12:53 Sunny 88 31.1 68 20 52 52 VRB 6 9 30.09 1019 10 16.0934 0 0
1:53 pm 13:53 Sunny 90 32.2 68 20 48 48 VRB 5 7 30.06 1018 10 16.0934 0 0
2:53 pm 14:53 Sunny 90 32.2 66 18.9 45 45 Calm 30.05 1018 10 16.0934 0 0
3:53 pm 15:53 Sunny 91 32.8 65 18.3 42 42 Calm 30.03 1017 10 16.0934 0 0
4:53 pm 16:53 Mostly Sunny 91 32.8 67 19.4 45 45 VRB 3 6 30 1016 10 16.0934 0 0
5:53 pm 17:53 Partly Cloudy 89 31.7 71 21.7 55 55 Calm 29.99 1016 10 16.0934 0 0
6:53 pm 18:53 Sunny 85 29.4 71 21.7 63 63 SSW 3 6 30 1016 10 16.0934 0 0
7:53 pm 19:53 Sunny 78 25.6 72 22.2 82 82 Calm 30 1016 10 16.0934 0 0
8:53 pm 20:53 Clear 74 23.3 71 21.7 91 91 Calm 30.01 1016 8 12.87472 0 0
9:53 pm 21:53 Clear with Mist and Fog 72 22.2 70 21.1 94 94 Calm 30.03 1017 6 9.65604 0 0
10:53 pm 22:53 Clear with Mist and Fog 71 21.7 70 21.1 96 96 Calm 30.04 1017 5 8.0467 0 0.0254
11:53 pm 23:53 Clear with Mist and Fog 70 21.1 69 20.6 97 97 Calm 30.04 1017 5 8.0467 0 0

Powered by AerisWeather